#timestamp,LO_Frequency,Hit,StdDev 
1549432815.5,286046997.7,N
1549432835.3,286046996.5,N
1549432855.1,286046999.5,N
1549432875.9,286046997.4,N
1549432895.7,286046997.0,N
1549432915.5,286047001.0,N
1549432935.4,286046999.0,N
1549432955.2,286046997.5,N
1549432975.1,286046996.8,N
1549432976.0,286046996.8,N
1549432995.8,286046997.3,N
1549433015.6,286046996.9,N
1549433035.5,286046997.0,N
1549433055.3,286046998.6,N
1549433075.1,286047000.4,N
1549433095.9,286047000.8,N
1549433115.7,286046998.8,N
1549433135.6,286046999.5,N
1549433155.4,286046996.8,N
1549433175.2,286046996.6,N
1549433195.1,286046995.4,N
1549433196.0,286046995.4,N
1549433215.8,286046997.8,N
1549433235.7,286046997.4,N
1549433255.5,286046999.4,N
1549433275.3,286047001.0,N
1549433295.2,286046998.9,N
1549433315.0,286046998.2,N
1549433315.9,286046998.2,N
1549433335.7,286046998.2,N
1549433355.6,286046997.0,N
1549433375.4,286046999.3,N
1549433395.3,286046998.8,N
1549433415.1,286046999.4,N
1549433416.0,286046999.4,N
1549433435.8,286046999.1,N
1549433455.7,286046996.5,N
1549433475.5,286046996.7,N
1549433495.3,286046997.3,N
1549433515.2,286046997.9,N
1549433535.0,286046997.1,N
1549433535.9,286046997.1,N
1549433555.8,286046998.4,N
1549433575.6,286046999.3,N
1549433595.4,286046999.1,N
1549433615.3,286046997.1,N
1549433635.1,286046996.7,N
1549433655.8,286046998.4,N
1549433675.7,286046999.4,N
1549433695.5,286047002.6,N
1549433715.4,286047002.7,N
1549433735.2,286047002.4,N
1549433755.0,286047002.0,N
1549433755.9,286047002.0,N
1549433775.8,286047002.6,N
1549433795.6,286047002.0,N
1549433815.4,286046999.7,N
1549433835.3,286046999.9,N
1549433855.1,286047001.1,N
1549433875.9,286046999.6,N
1549433895.7,286046997.5,N
1549433915.5,286046997.4,N
1549433935.4,286046998.2,N
1549433955.2,286046998.4,N
1549433975.0,286047000.0,N
1549433975.9,286047000.0,N
1549433995.8,286047000.7,N
1549434015.6,286047001.0,N
1549434035.5,286046998.6,N
1549434055.3,286047000.4,N
1549434075.1,286047001.1,N
1549434095.9,286047000.9,N
1549434115.7,286046998.2,N
1549434135.5,286047000.9,N
1549434155.4,286047000.1,N
1549434175.2,286047000.0,N
1549434195.1,286047002.2,N
1549434196.0,286047002.2,N
1549434215.8,286047002.6,N
1549434235.6,286047002.6,N
1549434255.5,286047002.5,N
1549434275.3,286047002.7,N
1549434295.1,286047011.9,Y
1549434315.9,286047000.0,P
1549434335.7,286047000.8,N
1549434355.6,286046998.9,P
1549434375.4,286047000.2,N
1549434395.2,286046999.0,N
1549434415.1,286046999.2,N
1549434416.0,286046999.2,N
1549434435.8,286047001.1,N
1549434455.6,286046998.1,N
1549434475.5,286047000.4,N
1549434495.3,286046999.8,N
1549434515.2,286047002.7,Y
1549434535.9,286047000.2,P
1549434555.7,286047000.9,P
1549434575.6,286046998.5,P
1549434595.4,286047000.0,N
1549434615.3,286047000.9,N
1549434635.1,286047000.2,N
1549434636.0,286047000.2,N
1549434655.8,286046998.7,N
1549434675.7,286046997.4,Y
1549434695.5,286046995.8,P
1549434715.3,286046993.9,N
1549434735.2,286046991.4,P
1549434755.0,286046988.1,Y
1549434755.9,286046988.1,P
1549434775.8,286046993.0,N
1549434795.6,286046990.6,P
1549434815.4,286046992.5,N
1549434835.3,286046991.8,Y
1549434855.1,286046999.7,P
1549434875.8,286047001.7,N
1549434895.7,286047002.7,N
1549434915.5,286047001.3,N
1549434935.4,286047003.8,N
1549434955.2,286047003.4,N
1549434975.0,286047005.6,N
1549434975.9,286047005.6,N
1549434995.8,286047005.0,N
1549435015.6,286047005.8,N
1549435035.4,286047004.7,N
1549435055.3,286047005.8,N
1549435075.1,286047005.3,N
1549435095.9,286047005.9,N
1549435115.7,286047003.0,N
1549435135.5,286047006.0,N
1549435155.4,286047001.8,N
1549435175.2,286047001.0,N
1549435195.0,286047002.8,N
1549435195.9,286047002.8,N
1549435215.8,286047000.0,N
1549435235.6,286046999.9,N
1549435255.5,286047001.4,N
1549435275.3,286047004.2,N
1549435295.1,286047005.7,N
1549435315.9,286047003.4,N
1549435335.7,286047006.8,N
1549435355.5,286047007.2,N
1549435375.4,286047006.7,N
1549435395.2,286047008.5,N
1549435415.1,286047007.7,Y
1549435416.0,286047007.7,P
1549435435.8,286047005.5,N
1549435455.6,286047005.2,P
1549435475.5,286047005.4,Y
1549435495.3,286046999.5,P
1549435515.1,286046996.6,N
1549435535.9,286046997.1,N
1549435555.7,286046997.5,N
1549435575.6,286046999.6,N
1549435595.4,286046996.7,N
1549435615.2,286046998.4,N
1549435635.1,286046999.5,N
1549435636.0,286046999.5,N
1549435655.8,286046998.9,N
1549435675.6,286046999.1,N
1549435695.5,286047001.1,N
1549435715.3,286046998.1,N
1549435735.2,286046998.5,N
1549435755.9,286046997.2,N
1549435775.7,286046998.0,N
1549435795.6,286046997.9,N
1549435815.4,286046994.3,N
1549435835.2,286046996.2,N
1549435855.1,286046993.4,Y
1549435856.0,286046993.4,P
1549435875.8,286046995.7,N
1549435895.7,286046995.1,N
1549435915.5,286046997.2,N
1549435935.3,286046998.7,N
1549435955.2,286046998.4,N
1549435975.0,286047000.5,N
1549435975.9,286047000.5,N
1549435995.7,286047002.3,N
1549436015.6,286047001.5,N
1549436035.4,286047003.4,N
1549436055.3,286047003.4,N
1549436075.1,286047001.3,N
1549436076.0,286047001.3,N
1549436095.8,286047002.6,N
1549436115.7,286047005.5,N
1549436135.5,286047003.5,N
1549436155.3,286047003.6,N
1549436175.2,286047004.1,N
1549436195.0,286047004.0,N
1549436195.9,286047004.0,N
1549436215.8,286047003.2,N
1549436235.6,286047005.3,N
1549436255.4,286047005.8,N
1549436275.3,286047005.0,N
1549436295.1,286047005.3,N
1549436315.8,286047003.7,N
1549436335.7,286047003.3,N
1549436355.5,286047003.6,N
1549436375.4,286047006.0,N
1549436395.2,286047005.5,N
